• In Belarus
  • List of Countries
  • For 7 days
  • Water Temperature
  • Satellite Maps
  • Weather Map
  • Weather Widgets
  • user-avatar
    Login

    Hourly Weather Zgurovka

    Today, 20 October, Friday

    Time Temperature Precipitation Wind Pressure Humidity
    00:00 +11°C° 0 mm 3 mps 751 mmHg 83%
    01:00 +10°C° 0 mm 3 mps 751 mmHg 84%
    02:00 +10°C° 0 mm 3 mps 751 mmHg 85%
    03:00 +9°C° 0 mm 3 mps 751 mmHg 85%
    04:00 +9°C° 0 mm 3 mps 751 mmHg 85%
    05:00 +9°C° 0 mm 3 mps 751 mmHg 85%
    06:00 +9°C° 0 mm 3 mps 751 mmHg 82%
    07:00 +8°C° 0 mm 4 mps 752 mmHg 79%
    08:00 +8°C° 0 mm 4 mps 752 mmHg 76%
    09:00 +11°C° 0 mm 4 mps 752 mmHg 71%
    10:00 +12°C° 0 mm 4 mps 752 mmHg 66%
    11:00 +13°C° 0 mm 4 mps 752 mmHg 61%
    12:00 +13°C° 0 mm 4 mps 752 mmHg 59%
    13:00 +14°C° 0 mm 4 mps 753 mmHg 57%
    14:00 +14°C° 0 mm 4 mps 753 mmHg 55%
    15:00 +13°C° 0 mm 3 mps 753 mmHg 58%
    16:00 +12°C° 0 mm 3 mps 753 mmHg 61%
    17:00 +11°C° 0 mm 3 mps 753 mmHg 64%
    18:00 +10°C° 0 mm 3 mps 753 mmHg 65%
    19:00 +9°C° 0 mm 3 mps 753 mmHg 65%
    20:00 +9°C° 0 mm 3 mps 753 mmHg 66%
    21:00 +8°C° 0 mm 3 mps 753 mmHg 68%
    22:00 +8°C° 0 mm 3 mps 753 mmHg 69%
    23:00 +7°C° 0 mm 2 mps 753 mmHg 70%

    Tomorrow, 21 October, Saturday

    Time Temperature Precipitation Wind Pressure Humidity
    00:00 +7°C° 0 mm 2 mps 753 mmHg 71%
    01:00 +6°C° 0 mm 2 mps 753 mmHg 72%
    02:00 +6°C° 0 mm 2 mps 753 mmHg 73%
    03:00 +6°C° 0 mm 2 mps 753 mmHg 74%
    04:00 +5°C° 0 mm 2 mps 753 mmHg 75%
    05:00 +5°C° 0 mm 2 mps 753 mmHg 75%
    06:00 +5°C° 0 mm 2 mps 753 mmHg 74%
    07:00 +6°C° 0 mm 2 mps 753 mmHg 72%
    08:00 +6°C° 0 mm 2 mps 753 mmHg 70%
    09:00 +7°C° 0 mm 2 mps 753 mmHg 65%
    10:00 +9°C° 0 mm 2 mps 753 mmHg 60%
    11:00 +10°C° 0 mm 2 mps 753 mmHg 54%
    12:00 +12°C° 0 mm 2 mps 752 mmHg 52%
    13:00 +12°C° 0 mm 2 mps 752 mmHg 49%
    14:00 +13°C° 0 mm 2 mps 752 mmHg 47%
    15:00 +12°C° 0 mm 2 mps 752 mmHg 49%
    16:00 +10°C° 0 mm 2 mps 751 mmHg 51%
    17:00 +10°C° 0 mm 2 mps 751 mmHg 53%
    18:00 +9°C° 0 mm 3 mps 751 mmHg 54%
    19:00 +9°C° 0 mm 3 mps 751 mmHg 54%
    20:00 +7°C° 0 mm 4 mps 751 mmHg 54%
    21:00 +7°C° 0.1 mm 4 mps 751 mmHg 57%
    22:00 +7°C° 0.1 mm 4 mps 751 mmHg 59%
    23:00 +6°C° 0.1 mm 4 mps 751 mmHg 62%

    Day after tomorrow, 22 October, Sunday

    Time Temperature Precipitation Wind Pressure Humidity
    00:00 +6°C° 0.1 mm 4 mps 751 mmHg 64%
    01:00 +6°C° 0.1 mm 4 mps 751 mmHg 66%
    02:00 +6°C° 0.1 mm 4 mps 751 mmHg 68%
    03:00 +5°C° 0 mm 3 mps 751 mmHg 70%
    04:00 +5°C° 0 mm 3 mps 751 mmHg 72%
    05:00 +4°C° 0 mm 3 mps 751 mmHg 75%
    06:00 +4°C° 0 mm 3 mps 751 mmHg 74%
    07:00 +5°C° 0 mm 3 mps 752 mmHg 72%
    08:00 +5°C° 0 mm 4 mps 752 mmHg 71%
    09:00 +6°C° 0 mm 4 mps 752 mmHg 66%
    10:00 +8°C° 0 mm 3 mps 752 mmHg 61%
    11:00 +9°C° 0 mm 3 mps 752 mmHg 56%
    12:00 +9°C° 0 mm 3 mps 752 mmHg 54%
    13:00 +10°C° 0 mm 3 mps 752 mmHg 52%
    14:00 +10°C° 0 mm 3 mps 752 mmHg 50%
    15:00 +9°C° 0 mm 2 mps 752 mmHg 53%
    16:00 +8°C° 0 mm 2 mps 752 mmHg 57%
    17:00 +7°C° 0 mm 2 mps 752 mmHg 60%
    18:00 +6°C° 0 mm 2 mps 752 mmHg 61%
    19:00 +4°C° 0 mm 3 mps 753 mmHg 62%
    20:00 +4°C° 0 mm 3 mps 753 mmHg 63%
    21:00 +3°C° 0 mm 3 mps 753 mmHg 64%
    22:00 +3°C° 0 mm 3 mps 753 mmHg 65%
    23:00 +2°C° 0 mm 3 mps 753 mmHg 65%

    23 October, Monday

    Time Temperature Precipitation Wind Pressure Humidity
    00:00 +2°C° 0 mm 3 mps 753 mmHg 66%
    01:00 +2°C° 0 mm 3 mps 753 mmHg 67%
    02:00 +1°C° 0 mm 3 mps 753 mmHg 67%
    03:00 +1°C° 0 mm 3 mps 753 mmHg 68%
    04:00 +1°C° 0 mm 3 mps 753 mmHg 68%
    05:00 +1°C° 0 mm 3 mps 753 mmHg 69%
    06:00 +1°C° 0 mm 3 mps 753 mmHg 67%
    07:00 +1°C° 0 mm 4 mps 753 mmHg 65%
    08:00 +1°C° 0 mm 4 mps 753 mmHg 63%
    09:00 +4°C° 0 mm 4 mps 753 mmHg 59%
    10:00 +5°C° 0 mm 4 mps 753 mmHg 54%
    11:00 +7°C° 0 mm 4 mps 753 mmHg 50%
    12:00 +7°C° 0 mm 5 mps 753 mmHg 48%
    13:00 +8°C° 0 mm 5 mps 752 mmHg 47%
    14:00 +8°C° 0 mm 5 mps 752 mmHg 45%
    15:00 +7°C° 0 mm 4 mps 752 mmHg 47%
    16:00 +7°C° 0 mm 4 mps 752 mmHg 48%
    17:00 +6°C° 0 mm 4 mps 752 mmHg 50%
    18:00 +6°C° 0 mm 4 mps 752 mmHg 49%
    19:00 +6°C° 0 mm 5 mps 752 mmHg 49%
    20:00 +5°C° 0 mm 5 mps 752 mmHg 48%
    21:00 +5°C° 0 mm 5 mps 753 mmHg 48%
    22:00 +5°C° 0 mm 5 mps 753 mmHg 49%
    23:00 +3°C° 0 mm 5 mps 753 mmHg 49%

    24 October, Tuesday

    Time Temperature Precipitation Wind Pressure Humidity
    00:00 +3°C° 0 mm 5 mps 753 mmHg 49%
    01:00 +2°C° 0 mm 5 mps 753 mmHg 49%
    02:00 +2°C° 0 mm 5 mps 753 mmHg 49%
    03:00 +2°C° 0 mm 5 mps 753 mmHg 49%
    04:00 +2°C° 0 mm 5 mps 753 mmHg 49%
    05:00 +1°C° 0 mm 5 mps 753 mmHg 49%
    06:00 +1°C° 0 mm 6 mps 753 mmHg 49%
    07:00 +2°C° 0 mm 6 mps 754 mmHg 49%
    08:00 +2°C° 0 mm 6 mps 754 mmHg 48%
    09:00 +3°C° 0 mm 6 mps 754 mmHg 46%
    10:00 +4°C° 0 mm 6 mps 754 mmHg 43%
    11:00 +5°C° 0 mm 6 mps 755 mmHg 40%
    12:00 +7°C° 0 mm 6 mps 755 mmHg 39%
    13:00 +7°C° 0 mm 6 mps 755 mmHg 38%
    14:00 +8°C° 0 mm 6 mps 755 mmHg 37%
    15:00 +7°C° 0 mm 5 mps 755 mmHg 39%
    16:00 +7°C° 0 mm 5 mps 755 mmHg 40%
    17:00 +6°C° 0 mm 5 mps 756 mmHg 41%
    18:00 +6°C° 0 mm 5 mps 756 mmHg 42%
    19:00 +5°C° 0 mm 5 mps 756 mmHg 44%
    20:00 +4°C° 0 mm 6 mps 756 mmHg 45%
    21:00 +3°C° 0 mm 5 mps 757 mmHg 46%
    22:00 +3°C° 0 mm 5 mps 757 mmHg 47%
    23:00 +2°C° 0 mm 5 mps 757 mmHg 49%

    25 October, Wednesday

    Time Temperature Precipitation Wind Pressure Humidity
    00:00 +2°C° 0 mm 5 mps 758 mmHg 50%
    01:00 +2°C° 0 mm 5 mps 758 mmHg 50%
    02:00 +2°C° 0 mm 5 mps 758 mmHg 51%
    03:00 +2°C° 0 mm 5 mps 758 mmHg 51%
    04:00 +2°C° 0 mm 5 mps 758 mmHg 52%
    05:00 +1°C° 0 mm 5 mps 758 mmHg 52%
    06:00 +2°C° 0 mm 6 mps 759 mmHg 52%
    07:00 +2°C° 0 mm 6 mps 759 mmHg 51%
    08:00 +2°C° 0 mm 6 mps 759 mmHg 50%
    09:00 +2°C° 0 mm 6 mps 759 mmHg 50%
    10:00 +3°C° 0 mm 6 mps 759 mmHg 49%
    11:00 +3°C° 0 mm 6 mps 760 mmHg 48%
    12:00 +3°C° 0.1 mm 6 mps 759 mmHg 48%
    13:00 +3°C° 0.1 mm 6 mps 759 mmHg 49%
    14:00 +4°C° 0.1 mm 6 mps 759 mmHg 49%
    15:00 +3°C° 0.4 mm 5 mps 759 mmHg 53%
    16:00 +3°C° 0.4 mm 5 mps 759 mmHg 56%
    17:00 +3°C° 0.4 mm 4 mps 759 mmHg 60%
    18:00 +3°C° 0.4 mm 4 mps 759 mmHg 63%
    19:00 +3°C° 0.4 mm 4 mps 760 mmHg 65%
    20:00 +3°C° 0.4 mm 4 mps 760 mmHg 68%
    21:00 +1°C° 0.1 mm 4 mps 760 mmHg 69%
    22:00 +1°C° 0.1 mm 4 mps 760 mmHg 69%
    23:00 +1°C° 0.1 mm 4 mps 760 mmHg 70%
    Show more